This demonstration page uses our WeatherBlox Daily Observations layout. Learn more.

39.92423, -83.80882

Hourly Observations for December 1, 2019

Temp ( °F °C ) Dew Point ( °F °C ) Humidity (%) Winds ( mph kmh ) Pressure ( in mb ) Visibility ( mi km ) Precip ( " mm )
12:34 am 00:34 Cloudy with Light Rain 39 4 39 4 100 100 ESE 14 22 29.59 1002 0.5 0.80467 0.001 0.001
12:56 am 00:56 Cloudy with Light Rain 40 4.4 40 4.4 100 100 ESE 13 20 29.53 1000 0.5 0.80467 0.001 0.001
1:56 am 01:56 Cloudy with Fog 41 5 41 5 100 100 SE 21 33 29.47 998 0.5 0.80467 0.001 0.001
2:34 am 02:34 Cloudy with Light Rain 43 6 43 6 100 100 ESE 14 22 29.47 998 0.75 1.207005 0.001 0.001
2:47 am 02:47 Cloudy with Light Rain 43 6 43 6 100 100 SE 14 22 29.47 998 1 1.60934 0.01 0.254
2:56 am 02:56 Cloudy with Light Rain 43 6.1 43 6.1 100 100 SSE 13 20 29.44 997 1.75 2.816345 0.02 0.508
3:01 am 03:01 Cloudy with Light Rain 43 6 43 6 100 100 SE 15 24 29.44 997 3 4.82802 0.001 0.001
3:56 am 03:56 Cloudy 45 7.2 45 7.2 100 100 SSE 14 22 29.4 996 10 16.0934 0.001 0.001
4:23 am 04:23 Cloudy with Mist and Fog 46 8 46 8 100 100 SSE 13 20 29.41 996 2 3.21868 0 0
4:31 am 04:31 Cloudy with Mist and Fog 46 8 46 8 100 100 SSE 12 19 29.41 996 1.25 2.011675 0 0
4:48 am 04:48 Cloudy with Mist and Fog 46 8 46 8 100 100 SE 13 20 29.38 995 1 1.60934 0 0
4:56 am 04:56 Cloudy with Mist and Fog 46 7.8 46 7.8 100 100 SSE 7 11 29.37 995 0.75 1.207005 0 0
5:10 am 05:10 Cloudy with Light Rain 48 9 48 9 100 100 SSW 9 15 29.41 996 1.25 2.011675 0.001 0.001
5:15 am 05:15 Cloudy with Light Rain 48 9 48 9 100 100 SSW 7 11 29.38 995 3 4.82802 0.001 0.001
5:36 am 05:36 Cloudy 50 10 50 10 100 100 SW 9 15 29.38 995 10 16.0934 0.001 0.001
5:56 am 05:56 Cloudy 51 10.6 51 10.6 100 100 W 24 39 29.39 995 10 16.0934 0.001 0.001
6:13 am 06:13 Cloudy with Light Rain 48 9 46 8 94 94 WNW 20 31 29.41 996 10 16.0934 0.001 0.001
6:20 am 06:20 Cloudy with Light Rain 48 9 46 8 94 94 WNW 16 26 29.41 996 10 16.0934 0.001 0.001
6:56 am 06:56 Cloudy 45 7.2 44 6.7 97 97 W 9 15 29.42 996 10 16.0934 0.02 0.508
7:56 am 07:56 Mostly Sunny 43 6.1 43 6.1 100 100 SSW 6 9 29.42 996 10 16.0934 0 0
8:56 am 08:56 Sunny 46 7.8 44 6.7 93 93 SW 7 11 29.43 997 10 16.0934 0 0
9:56 am 09:56 Sunny 50 10 46 7.8 86 86 SSW 10 17 29.41 996 10 16.0934 0 0
10:56 am 10:56 Mostly Sunny 52 11.1 42 5.6 69 69 WSW 23 37 29.4 996 10 16.0934 0 0
11:56 am 11:56 Mostly Cloudy 50 10 39 3.9 66 66 WSW 16 26 29.39 995 10 16.0934 0 0
12:56 pm 12:56 Cloudy with Light Rain 38 3.3 36 2.2 93 93 WNW 15 24 29.46 998 10 16.0934 0.001 0.001
1:20 pm 13:20 Cloudy 39 4 36 2 87 87 W 13 20 29.5 999 10 16.0934 0.01 0.254
1:56 pm 13:56 Cloudy with Light Rain 40 4.4 37 2.8 89 89 W 16 26 29.47 998 10 16.0934 0.01 0.254
2:23 pm 14:23 Cloudy with Light Rain 39 4 37 3 93 93 W 10 17 29.5 999 10 16.0934 0.001 0.001
2:56 pm 14:56 Cloudy with Light Rain 39 3.9 36 2.2 89 89 W 15 24 29.48 998 10 16.0934 0.001 0.001
3:56 pm 15:56 Cloudy with Light Rain 37 2.8 35 1.7 93 93 W 15 24 29.52 1000 10 16.0934 0.001 0.001
4:15 pm 16:15 Cloudy with Light Rain 36 2 36 2 100 100 W 13 20 29.56 1001 10 16.0934 0.001 0.001
4:27 pm 16:27 Cloudy with Light Rain 36 2 36 2 100 100 WSW 21 33 29.56 1001 9 14.48406 0.01 0.254
4:56 pm 16:56 Cloudy 35 1.7 35 1.7 100 100 WSW 13 20 29.54 1001 10 16.0934 0.01 0.254
5:36 pm 17:36 Cloudy with Light Rain 36 2 36 2 100 100 SW 10 17 29.59 1002 10 16.0934 0.001 0.001
5:56 pm 17:56 Cloudy with Light Rain 36 2.2 35 1.7 97 97 SW 10 17 29.56 1001 10 16.0934 0.001 0.001
6:56 pm 18:56 Cloudy with Light Rain 36 2.2 35 1.7 97 97 SW 12 19 29.58 1002 9 14.48406 0.001 0.001
7:56 pm 19:56 Cloudy with Light Rain 36 2.2 35 1.7 97 97 SW 9 15 29.59 1002 10 16.0934 0.01 0.254
8:11 pm 20:11 Cloudy with Light Rain 36 2 36 2 100 100 WSW 10 17 29.59 1002 10 16.0934 0.001 0.001
8:56 pm 20:56 Cloudy with Light Rain 35 1.7 35 1.7 100 100 SW 10 17 29.59 1002 10 16.0934 0.001 0.001
9:28 pm 21:28 Cloudy 36 2 36 2 100 100 W 12 19 29.62 1003 10 16.0934 0.001 0.001
9:56 pm 21:56 Cloudy 35 1.7 34 1.1 96 96 WSW 12 19 29.6 1003 10 16.0934 0.001 0.001
10:34 pm 22:34 Cloudy with Light Rain 36 2 34 1 93 93 WSW 9 15 29.62 1003 10 16.0934 0.001 0.001
10:56 pm 22:56 Cloudy with Light Rain 34 1.1 34 1.1 100 100 WSW 9 15 29.61 1003 10 16.0934 0.001 0.001
11:26 pm 23:26 Cloudy with Light Rain 34 1 34 1 100 100 WSW 9 15 29.62 1003 10 16.0934 0.001 0.001
11:56 pm 23:56 Cloudy with Light Snow 34 1.1 34 1.1 100 100 SW 8 13 29.62 1003 7 11.26538 0.01 0.254

Powered by AerisWeather